SCP
-0 0 -0 -0 -0 -0 -0 -0 -0 -0 -0 -0 -0 -0 -0 -0 -0 -0 -0 -0 -0 -0 -0 -0 0 0 0 -0 -0 -0 -0 -0 -0 -0 -0 -0 -0 -0 0 0 0 0 0
-0 -0 -0 -0 -0 -0 -0 -0 -0 -0 -0 -0 -0 -0 -0 -0 -0 -0 -0 -0 -0 -0 -0 -0 -0 -0 -0 -0 -0 -0 -0 0 -0 -0 -0 -0 -0 -0 0 0 0 0 0
0 0 -0 -0 -0 -0 -0 -0 -0 -0 -0 -0 -0 -0 -0 -0 -0 0 -0 -0 -0 -0 -0 -0 -0 -0 -0 -0 0 -0 -0 0 0 0 -0 0 0 0 0 0 0 0 0
-0 -0 -0 -0 -0 -0 -0 -0 -0 -0 -0 -0 -0 -0 0 0 0 0 0 0 0 0 -0 -0 -0 -0 -0 0 0 0 0 0 0 0 0 0 0 0 0 0 0 0 0
-0 -0 -0 -0 -0 -0 -0 -0 -0 -0 -0 -0 -0 -0 0 0 0 0 0 0 0 0 0 0 0 0 0 0 0 0 0 0 0 0 0 0 0 0 0 0 0 0 0
-0 -0 -0 -0 -0 -0 -0 -0 -0 -0 -0 -0 -0 -0 -0 0 0 0 0 0 0 0 0 0 0 0 0 0 0 0 0 0 0 0 0 0 0 0 0 0 0 0 0
-0 -0 -0 -0 -0 -0 -0 -0 -0 -0 0 -0 -0 -0 -0 0 0 0 0 0 0 0 0 0 0 0 0 0 0 0 0 0 0 0 0 0 0 0 -0 0 0 0 0
0 0 -0 -0 0 0 0 -0 -0 -0 -0 0 0 0 0 0 0 0 0 0 0 0 0 0 0 0 0 0 0 -0 0 0 0 0 0 0 0 0 0 0 0 0 0
-0 0 -0 -0 0 0 0 0 0 0 0 0 0 0 0 0 0 0 0 0 0 0 0 0 0 0 0 0 0 0 0 0 0 0 0 0 0 0 0 0 0 0 0
-0 0 -0 -0 -0 -0 -0 -0 0 0 0 0 0 0 0 0 0 0 0 0 0 0 0 0 0 0 0 0 0 0 0 -0 0 0 0 0 0 0 0 0 0 0 0
0 0 0 0 0 -0 -0 -0 -0 0 0 0 0 0 0 0 0 0 0 0 0 0 0 0 0 0 0 0 0 0 0 0 0 0 0 -0 0 0 0 0 0 0 0
0 0 0 0 0 0 0 0 -0 0 0 0 1 1 1 1 0 0 0 0 0 0 0 0 0 0 0 0 0 0 0 0 0 0 0 -0 -0 0 0 0 0 0 0
0 0 0 0 0 0 1 1 0 1 0 0 0 1 0 0 0 1 1 1 1 1 1 1 1 0 0 0 0 0 0 0 0 0 0 -0 0 0 0 0 0 0 0
0 0 0 0 0 0 0 0 0 1 1 1 0 0 1 0 0 0 0 1 1 1 1 0 0 0 0 0 0 0 0 0 0 0 0 -0 0 0 0 0 0 0 0
0 0 0 0 0 0 0 0 0 0 0 2 2 1 1 1 0 0 0 1 1 1 1 0 0 0 0 0 0 0 0 0 0 0 0 0 0 0 0 0 0 0 0
0 0 0 0 0 0 0 0 0 0 0 0 0 2 2 1 1 1 1 1 1 1 1 1 0 0 0 0 0 0 0 0 0 0 0 0 0 0 0 0 0 0 0
0 0 0 0 0 0 0 0 0 0 0 0 0 0 2 3 2 2 1 1 1 1 0 0 0 0 0 0 0 0 0 0 0 0 0 0 0 0 0 0 0 0 0
0 0 0 0 0 0 0 0 0 0 0 0 0 0 0 3 4 3 2 2 1 1 1 0 0 0 0 0 0 0 0 0 0 0 0 0 0 0 0 0 0 0 0
0 0 0 0 0 0 0 0 0 0 0 0 0 0 0 1 3 3 3 3 3 2 1 1 1 0 0 0 0 0 0 0 0 1 1 0 0 0 0 0 0 0 0
0 0 0 0 0 0 0 0 0 0 0 0 0 0 0 0 1 3 4 2 4 3 2 2 1 0 1 0 1 0 0 0 1 1 1 1 0 0 0 0 0 0 0
0 0 0 0 0 0 0 0 0 0 0 0 0 0 0 0 0 1 3 3 3 0 1 1 1 0 0 0 0 0 1 1 0 0 1 1 1 0 0 0 0 0 0
0 0 0 0 0 0 0 0 0 0 0 0 0 0 0 0 0 0 2 2 2 1 1 1 1 1 0 1 0 0 0 0 0 0 0 0 0 0 0 0 0 0 0
0 0 0 0 0 0 0 0 0 0 0 0 0 0 0 0 0 0 0 1 1 0 1 0 1 2 1 1 1 0 0 0 0 0 0 0 0 0 0 0 0 0 0
0 0 0 0 0 0 0 0 0 0 -0 0 0 0 0 0 0 0 0 0 0 0 0 0 1 2 1 0 1 0 0 0 0 0 0 0 0 0 0 0 0 0 0
0 0 0 0 0 0 0 0 0 0 0 0 0 0 0 0 0 0 0 0 0 0 0 1 1 1 1 1 1 1 0 0 0 0 0 0 0 0 0 0 0 0 0
0 0 0 0 0 0 0 0 0 0 0 0 0 0 0 0 0 -0 -0 0 0 0 0 0 1 1 1 1 1 1 1 1 1 0 0 0 0 0 0 0 0 0 0
Wind_Speed_500mb
31 30 31 28 27 24 24 26 28 31 33 36 38 39 40 40 39 33 31 30 30 30 29 28 27 25 23 23 23 22 20 22 23 28 38 44 45 43 42 43 45 44 40
30 31 30 28 24 24 24 26 26 28 31 34 35 34 34 35 34 30 27 26 25 25 24 23 22 22 22 24 25 23 20 22 22 23 30 35 41 40 40 42 43 43 37
31 32 33 28 22 27 29 28 26 25 27 29 32 32 32 31 28 24 22 21 19 18 18 17 16 17 17 18 22 19 19 19 16 15 20 28 36 38 39 40 43 42 36
31 31 32 30 26 28 34 31 28 25 24 24 26 27 28 27 25 21 18 15 14 13 13 11 10 10 11 14 17 15 14 14 13 12 10 26 30 36 36 39 43 40 34
34 27 27 27 29 27 32 32 29 25 23 22 23 23 21 22 22 19 16 12 9 11 10 8 6 3 4 8 13 12 10 9 9 6 6 16 19 34 31 33 34 34 30
32 23 21 23 25 26 28 29 28 24 20 20 19 21 20 18 18 16 14 12 10 9 9 8 7 6 3 2 6 8 8 4 7 9 3 11 12 28 29 28 31 31 26
32 23 17 16 20 23 24 24 22 22 19 18 17 17 17 17 16 15 16 15 13 11 11 10 11 10 9 6 3 5 3 4 10 4 12 13 7 19 28 24 25 26 24
23 10 12 15 15 18 21 19 16 17 15 15 16 17 17 16 17 18 19 19 19 18 16 15 15 15 13 10 6 2 4 5 3 8 3 16 10 13 25 23 20 21 21
44 15 22 21 21 16 19 16 9 8 9 12 14 16 18 19 20 22 22 23 24 24 24 22 20 19 17 14 10 6 1 7 6 9 13 22 15 10 21 20 16 16 17
22 20 24 27 31 28 21 20 16 10 3 7 12 16 19 22 24 26 27 28 29 30 30 29 27 24 22 20 14 8 6 6 14 12 16 26 20 13 18 16 15 12 13
21 34 20 21 15 13 14 12 18 19 12 11 12 15 19 23 26 29 31 32 33 35 35 35 33 31 28 26 19 12 6 5 21 20 20 29 27 16 17 15 15 11 9
61 56 36 30 27 2 6 8 21 18 14 9 12 14 21 24 25 29 30 32 37 40 41 41 40 38 37 32 25 18 7 8 18 23 21 31 25 22 20 16 16 12 7
29 23 27 18 19 24 9 7 10 16 18 18 18 17 13 14 24 31 30 28 29 31 37 43 46 48 44 39 33 25 13 5 21 23 28 38 27 25 21 18 16 14 9
6 7 1 8 12 11 9 9 9 7 13 22 25 26 23 18 23 22 26 26 30 32 29 27 35 51 49 45 39 34 25 13 26 32 21 38 28 24 21 20 17 15 12
23 28 20 23 26 25 23 29 31 28 9 13 25 30 33 26 24 27 27 32 40 37 37 36 30 24 33 41 31 30 36 24 31 20 20 23 28 24 25 24 21 18 15
20 25 35 39 38 37 35 35 35 39 37 38 22 27 34 41 37 31 29 40 44 41 40 35 36 30 28 27 31 24 32 35 40 36 33 33 28 26 32 33 26 23 16
16 21 16 28 23 24 26 30 33 39 40 40 51 38 30 42 54 46 38 38 41 54 49 39 38 40 51 36 32 34 37 35 36 41 42 44 36 29 33 30 26 26 13
15 16 15 18 22 23 27 25 23 22 29 36 46 42 46 33 53 64 54 50 52 47 52 67 56 48 36 54 45 42 47 47 35 42 50 42 38 34 36 29 27 18 14
13 5 15 12 15 17 20 24 24 25 25 29 38 52 47 44 40 63 65 59 63 56 51 48 53 62 53 37 51 50 51 41 39 43 48 51 45 44 40 29 18 16 20
10 10 14 14 19 19 19 22 24 21 20 26 34 36 48 55 46 47 65 68 64 61 52 53 52 55 56 60 48 54 49 44 51 53 57 58 47 46 40 30 27 24 27
9 19 24 33 25 27 30 29 31 32 32 31 27 26 37 44 44 43 51 58 66 48 49 50 58 61 56 59 57 52 50 47 51 42 37 50 54 50 35 33 32 29 33
19 19 31 30 23 24 25 26 30 32 32 33 35 38 34 37 38 35 24 43 58 53 67 50 50 58 57 60 65 57 54 47 41 38 33 42 48 40 37 40 30 33 28
27 27 27 24 20 19 25 34 37 34 33 36 36 37 40 44 43 50 53 38 33 49 59 55 62 60 58 65 66 61 36 36 46 33 33 50 41 48 40 31 30 28 35
32 26 23 24 18 19 25 34 41 45 47 44 44 44 46 48 48 47 50 51 53 49 51 64 65 59 57 72 69 72 65 38 35 19 28 40 52 48 47 42 35 33 35
32 28 26 16 2 17 27 41 46 55 56 53 48 52 48 47 50 49 44 44 43 49 54 59 55 55 64 68 67 72 71 72 70 36 25 39 45 45 48 45 42 51 46
32 30 28 22 13 12 37 46 48 49 54 57 61 58 54 54 52 50 47 45 38 42 44 66 62 88 66 67 68 62 77 66 64 53 43 42 52 51 58 52 53 55 44
Wind_Direction_500mb
137 132 131 129 124 122 121 122 115 112 124 132 134 136 137 138 138 133 122 117 115 114 111 108 106 104 105 108 92 83 69 65 73 75 48 42 42 41 42 40 39 40 42
147 135 130 124 122 122 127 129 123 116 124 134 136 136 137 138 139 135 127 123 119 118 116 115 112 110 107 102 92 84 78 77 78 82 55 42 38 37 39 39 38 39 42
153 140 130 124 121 120 127 131 129 119 121 135 142 144 145 145 145 144 137 131 128 126 125 121 116 111 107 102 94 86 78 83 72 79 59 41 33 33 33 37 37 36 39
155 142 133 126 119 119 126 132 133 124 117 130 144 151 152 152 151 155 151 146 144 145 141 135 126 114 102 93 91 91 81 82 79 61 12 35 29 31 25 32 32 34 41
142 132 126 124 116 116 125 133 138 131 122 129 144 155 160 162 161 166 166 162 161 168 167 166 163 154 98 79 80 86 79 76 67 67 246 19 20 24 15 32 35 37 48
116 119 119 116 113 113 121 131 140 138 133 135 147 159 165 175 177 182 184 187 185 189 203 211 218 225 253 21 62 74 84 84 87 100 205 353 360 17 7 26 32 39 49
101 105 106 108 111 113 115 126 143 147 147 147 154 162 173 183 194 204 207 209 217 222 234 247 250 245 250 279 358 73 77 108 89 144 260 267 321 10 1 13 29 38 48
42 88 107 113 109 110 113 117 137 149 161 167 170 177 183 195 206 215 224 232 238 245 247 255 259 255 256 265 287 354 136 216 245 262 241 224 269 348 354 359 19 34 46
93 103 104 107 89 99 86 89 103 128 164 185 195 199 204 209 215 224 231 238 243 249 256 258 260 257 258 265 277 294 205 212 239 259 212 224 268 310 349 352 3 27 40
110 113 99 89 92 112 95 70 56 28 293 224 219 217 221 226 231 234 236 239 244 250 253 257 258 257 259 262 266 284 302 207 231 232 229 241 250 285 336 345 343 11 31
142 66 113 80 81 102 82 54 24 5 345 297 272 255 242 237 238 242 245 249 250 250 251 254 256 257 258 258 264 278 322 309 226 244 263 235 234 270 319 327 326 343 16
90 91 104 83 70 199 145 15 9 357 354 347 330 309 281 265 256 249 250 255 258 257 256 253 252 253 254 254 256 267 288 0 233 248 278 229 230 278 299 301 311 319 343
86 89 90 121 89 112 127 344 343 319 296 300 296 306 293 285 270 264 255 246 259 262 258 260 258 254 253 254 254 254 227 200 269 264 269 226 236 269 287 287 291 302 307
21 60 130 130 210 200 192 201 212 325 298 295 299 283 258 283 302 280 258 257 266 276 270 281 277 260 257 255 256 259 240 258 282 264 231 226 235 255 281 282 271 283 288
269 274 297 294 289 281 262 237 240 251 245 284 280 296 264 257 280 291 272 249 257 265 268 270 290 287 270 256 247 258 238 254 269 273 261 267 238 252 280 288 262 266 277
207 242 258 280 303 297 285 283 265 255 256 252 273 291 280 276 269 262 265 249 248 253 258 259 263 277 280 253 245 246 234 248 252 267 268 261 241 244 268 268 264 259 267
205 254 300 336 343 327 316 305 288 276 265 254 252 263 287 268 273 258 260 256 257 249 255 259 259 265 262 254 243 244 238 262 244 250 261 263 256 253 268 257 256 256 264
218 242 287 315 343 342 337 337 321 300 277 265 256 254 256 294 269 262 259 264 275 266 254 245 253 261 266 251 245 233 246 268 250 244 251 259 252 256 266 256 260 259 290
224 323 345 360 349 341 338 333 326 317 307 292 266 247 243 261 290 260 265 264 267 260 265 251 243 247 253 258 242 249 252 250 244 245 243 251 249 252 252 242 247 249 246
218 310 328 325 318 315 326 326 325 338 319 309 290 275 261 259 280 278 267 260 261 254 259 261 245 237 245 248 250 255 249 251 245 240 240 241 241 236 234 216 211 219 224
280 298 306 321 304 303 310 318 323 331 337 334 327 309 281 270 283 297 272 267 257 265 261 259 265 258 254 247 249 246 243 246 239 233 241 227 228 229 216 212 210 223 240
246 266 288 288 286 299 310 318 322 323 323 322 320 307 302 290 280 306 313 270 267 262 258 258 257 264 260 254 247 250 243 232 231 227 217 214 215 217 228 209 217 224 251
233 243 253 258 261 280 305 317 315 309 311 320 312 308 299 306 302 299 311 300 294 266 269 255 256 247 258 256 249 240 237 233 229 221 214 212 208 214 231 232 227 247 265
213 218 230 255 257 279 293 311 327 327 321 319 320 315 310 303 307 310 307 308 300 285 263 260 253 250 254 258 247 244 243 239 226 195 225 225 194 236 249 232 228 240 258
201 202 206 168 48 316 314 316 321 323 315 310 312 311 307 300 299 300 312 310 297 290 278 262 258 251 254 254 249 246 247 247 251 237 192 194 200 215 232 220 233 232 238
170 139 153 195 177 316 303 305 313 313 315 317 316 312 307 302 297 302 302 305 314 284 269 274 257 259 243 249 255 252 245 243 243 241 222 216 211 206 205 207 218 223 234
Wind_Speed_850mb
31 30 31 28 27 24 24 26 28 31 33 36 38 39 40 40 39 33 31 30 30 30 29 28 27 25 23 23 23 22 20 22 23 28 38 44 45 43 42 43 45 44 40
30 31 30 28 24 24 24 26 26 28 31 34 35 34 34 35 34 30 27 26 25 25 24 23 22 22 22 24 25 23 20 22 22 23 30 35 41 40 40 42 43 43 37
31 32 33 28 22 27 29 28 26 25 27 29 32 32 32 31 28 24 22 21 19 18 18 17 16 17 17 18 22 19 19 19 16 15 20 28 36 38 39 40 43 42 36
31 31 32 30 26 28 34 31 28 25 24 24 26 27 28 27 25 21 18 15 14 13 13 11 10 10 11 14 17 15 14 14 13 12 10 26 30 36 36 39 43 40 34
34 27 27 27 29 27 32 32 29 25 23 22 23 23 21 22 22 19 16 12 9 11 10 8 6 3 4 8 13 12 10 9 9 6 6 16 19 34 31 33 34 34 30
32 23 21 23 25 26 28 29 28 24 20 20 19 21 20 18 18 16 14 12 10 9 9 8 7 6 3 2 6 8 8 4 7 9 3 11 12 28 29 28 31 31 26
32 23 17 16 20 23 24 24 22 22 19 18 17 17 17 17 16 15 16 15 13 11 11 10 11 10 9 6 3 5 3 4 10 4 12 13 7 19 28 24 25 26 24
23 10 12 15 15 18 21 19 16 17 15 15 16 17 17 16 17 18 19 19 19 18 16 15 15 15 13 10 6 2 4 5 3 8 3 16 10 13 25 23 20 21 21
44 15 22 21 21 16 19 16 9 8 9 12 14 16 18 19 20 22 22 23 24 24 24 22 20 19 17 14 10 6 1 7 6 9 13 22 15 10 21 20 16 16 17
22 20 24 27 31 28 21 20 16 10 3 7 12 16 19 22 24 26 27 28 29 30 30 29 27 24 22 20 14 8 6 6 14 12 16 26 20 13 18 16 15 12 13
21 34 20 21 15 13 14 12 18 19 12 11 12 15 19 23 26 29 31 32 33 35 35 35 33 31 28 26 19 12 6 5 21 20 20 29 27 16 17 15 15 11 9
61 56 36 30 27 2 6 8 21 18 14 9 12 14 21 24 25 29 30 32 37 40 41 41 40 38 37 32 25 18 7 8 18 23 21 31 25 22 20 16 16 12 7
29 23 27 18 19 24 9 7 10 16 18 18 18 17 13 14 24 31 30 28 29 31 37 43 46 48 44 39 33 25 13 5 21 23 28 38 27 25 21 18 16 14 9
6 7 1 8 12 11 9 9 9 7 13 22 25 26 23 18 23 22 26 26 30 32 29 27 35 51 49 45 39 34 25 13 26 32 21 38 28 24 21 20 17 15 12
23 28 20 23 26 25 23 29 31 28 9 13 25 30 33 26 24 27 27 32 40 37 37 36 30 24 33 41 31 30 36 24 31 20 20 23 28 24 25 24 21 18 15
20 25 35 39 38 37 35 35 35 39 37 38 22 27 34 41 37 31 29 40 44 41 40 35 36 30 28 27 31 24 32 35 40 36 33 33 28 26 32 33 26 23 16
16 21 16 28 23 24 26 30 33 39 40 40 51 38 30 42 54 46 38 38 41 54 49 39 38 40 51 36 32 34 37 35 36 41 42 44 36 29 33 30 26 26 13
15 16 15 18 22 23 27 25 23 22 29 36 46 42 46 33 53 64 54 50 52 47 52 67 56 48 36 54 45 42 47 47 35 42 50 42 38 34 36 29 27 18 14
13 5 15 12 15 17 20 24 24 25 25 29 38 52 47 44 40 63 65 59 63 56 51 48 53 62 53 37 51 50 51 41 39 43 48 51 45 44 40 29 18 16 20
10 10 14 14 19 19 19 22 24 21 20 26 34 36 48 55 46 47 65 68 64 61 52 53 52 55 56 60 48 54 49 44 51 53 57 58 47 46 40 30 27 24 27
9 19 24 33 25 27 30 29 31 32 32 31 27 26 37 44 44 43 51 58 66 48 49 50 58 61 56 59 57 52 50 47 51 42 37 50 54 50 35 33 32 29 33
19 19 31 30 23 24 25 26 30 32 32 33 35 38 34 37 38 35 24 43 58 53 67 50 50 58 57 60 65 57 54 47 41 38 33 42 48 40 37 40 30 33 28
27 27 27 24 20 19 25 34 37 34 33 36 36 37 40 44 43 50 53 38 33 49 59 55 62 60 58 65 66 61 36 36 46 33 33 50 41 48 40 31 30 28 35
32 26 23 24 18 19 25 34 41 45 47 44 44 44 46 48 48 47 50 51 53 49 51 64 65 59 57 72 69 72 65 38 35 19 28 40 52 48 47 42 35 33 35
32 28 26 16 2 17 27 41 46 55 56 53 48 52 48 47 50 49 44 44 43 49 54 59 55 55 64 68 67 72 71 72 70 36 25 39 45 45 48 45 42 51 46
32 30 28 22 13 12 37 46 48 49 54 57 61 58 54 54 52 50 47 45 38 42 44 66 62 88 66 67 68 62 77 66 64 53 43 42 52 51 58 52 53 55 44
Wind_Direction_850mb
137 132 131 129 124 122 121 122 115 112 124 132 134 136 137 138 138 133 122 117 115 114 111 108 106 104 105 108 92 83 69 65 73 75 48 42 42 41 42 40 39 40 42
147 135 130 124 122 122 127 129 123 116 124 134 136 136 137 138 139 135 127 123 119 118 116 115 112 110 107 102 92 84 78 77 78 82 55 42 38 37 39 39 38 39 42
153 140 130 124 121 120 127 131 129 119 121 135 142 144 145 145 145 144 137 131 128 126 125 121 116 111 107 102 94 86 78 83 72 79 59 41 33 33 33 37 37 36 39
155 142 133 126 119 119 126 132 133 124 117 130 144 151 152 152 151 155 151 146 144 145 141 135 126 114 102 93 91 91 81 82 79 61 12 35 29 31 25 32 32 34 41
142 132 126 124 116 116 125 133 138 131 122 129 144 155 160 162 161 166 166 162 161 168 167 166 163 154 98 79 80 86 79 76 67 67 246 19 20 24 15 32 35 37 48
116 119 119 116 113 113 121 131 140 138 133 135 147 159 165 175 177 182 184 187 185 189 203 211 218 225 253 21 62 74 84 84 87 100 205 353 360 17 7 26 32 39 49
101 105 106 108 111 113 115 126 143 147 147 147 154 162 173 183 194 204 207 209 217 222 234 247 250 245 250 279 358 73 77 108 89 144 260 267 321 10 1 13 29 38 48
42 88 107 113 109 110 113 117 137 149 161 167 170 177 183 195 206 215 224 232 238 245 247 255 259 255 256 265 287 354 136 216 245 262 241 224 269 348 354 359 19 34 46
93 103 104 107 89 99 86 89 103 128 164 185 195 199 204 209 215 224 231 238 243 249 256 258 260 257 258 265 277 294 205 212 239 259 212 224 268 310 349 352 3 27 40
110 113 99 89 92 112 95 70 56 28 293 224 219 217 221 226 231 234 236 239 244 250 253 257 258 257 259 262 266 284 302 207 231 232 229 241 250 285 336 345 343 11 31
142 66 113 80 81 102 82 54 24 5 345 297 272 255 242 237 238 242 245 249 250 250 251 254 256 257 258 258 264 278 322 309 226 244 263 235 234 270 319 327 326 343 16
90 91 104 83 70 199 145 15 9 357 354 347 330 309 281 265 256 249 250 255 258 257 256 253 252 253 254 254 256 267 288 0 233 248 278 229 230 278 299 301 311 319 343
86 89 90 121 89 112 127 344 343 319 296 300 296 306 293 285 270 264 255 246 259 262 258 260 258 254 253 254 254 254 227 200 269 264 269 226 236 269 287 287 291 302 307
21 60 130 130 210 200 192 201 212 325 298 295 299 283 258 283 302 280 258 257 266 276 270 281 277 260 257 255 256 259 240 258 282 264 231 226 235 255 281 282 271 283 288
269 274 297 294 289 281 262 237 240 251 245 284 280 296 264 257 280 291 272 249 257 265 268 270 290 287 270 256 247 258 238 254 269 273 261 267 238 252 280 288 262 266 277
207 242 258 280 303 297 285 283 265 255 256 252 273 291 280 276 269 262 265 249 248 253 258 259 263 277 280 253 245 246 234 248 252 267 268 261 241 244 268 268 264 259 267
205 254 300 336 343 327 316 305 288 276 265 254 252 263 287 268 273 258 260 256 257 249 255 259 259 265 262 254 243 244 238 262 244 250 261 263 256 253 268 257 256 256 264
218 242 287 315 343 342 337 337 321 300 277 265 256 254 256 294 269 262 259 264 275 266 254 245 253 261 266 251 245 233 246 268 250 244 251 259 252 256 266 256 260 259 290
224 323 345 360 349 341 338 333 326 317 307 292 266 247 243 261 290 260 265 264 267 260 265 251 243 247 253 258 242 249 252 250 244 245 243 251 249 252 252 242 247 249 246
218 310 328 325 318 315 326 326 325 338 319 309 290 275 261 259 280 278 267 260 261 254 259 261 245 237 245 248 250 255 249 251 245 240 240 241 241 236 234 216 211 219 224
280 298 306 321 304 303 310 318 323 331 337 334 327 309 281 270 283 297 272 267 257 265 261 259 265 258 254 247 249 246 243 246 239 233 241 227 228 229 216 212 210 223 240
246 266 288 288 286 299 310 318 322 323 323 322 320 307 302 290 280 306 313 270 267 262 258 258 257 264 260 254 247 250 243 232 231 227 217 214 215 217 228 209 217 224 251
233 243 253 258 261 280 305 317 315 309 311 320 312 308 299 306 302 299 311 300 294 266 269 255 256 247 258 256 249 240 237 233 229 221 214 212 208 214 231 232 227 247 265
213 218 230 255 257 279 293 311 327 327 321 319 320 315 310 303 307 310 307 308 300 285 263 260 253 250 254 258 247 244 243 239 226 195 225 225 194 236 249 232 228 240 258
201 202 206 168 48 316 314 316 321 323 315 310 312 311 307 300 299 300 312 310 297 290 278 262 258 251 254 254 249 246 247 247 251 237 192 194 200 215 232 220 233 232 238
170 139 153 195 177 316 303 305 313 313 315 317 316 312 307 302 297 302 302 305 314 284 269 274 257 259 243 249 255 252 245 243 243 241 222 216 211 206 205 207 218 223 234